Regional Weather Roundup
Issued by NWS

Home | Current Version | Previous Version | Graphics & Text | Print | Product List | Glossary On
Versions: 1 2 3 4 5 6 7 8 9 10 11 12 13 14 15 16 17 18 19 20 21 22 23 24 25 26 27
000
ASUS45 KBOU 300507
RWRCO

WEATHER ROUNDUP FOR COLORADO
NATIONAL WEATHER SERVICE DENVER/BOULDER CO
1100 PM MDT SUN MAY 29 2016

NOTE: "FAIR" INDICATES FEW OR NO CLOUDS BELOW 12000 FEET WITH NO
SIGNIFICANT WEATHER AND/OR OBSTRUCTIONS TO VISIBILITY.

COZ001>005-013-030-031-300600-
...NORTHWEST COLORADO...

CITY           SKY/WX    TMP DP  RH WIND       PRES   REMARKS
CRAIG          FAIR      50  42  74 CALM      30.17S
HAYDEN         FAIR      50  36  57 CALM      30.19F
MEEKER         FAIR      50  40  68 NE6       30.18S
MOUNT WERNER   NOT AVBL
STEAMBOAT SPGS FAIR      47  36  65 SE3       30.22S
WALDEN         NOT AVBL
$$

COZ006>008-011-300600-
...WEST CENTRAL VALLEYS...

CITY           SKY/WX    TMP DP  RH WIND       PRES   REMARKS
GRAND JUNCTION FAIR      64  36  35 VRB3      30.06R
MONTROSE       FAIR      55  35  47 SE8       30.12S
EAGLE          FAIR      50  36  57 CALM      30.22S
RIFLE          FAIR      52  38  58 E6        30.13S
DELTA          FAIR      61  31  31 NE8       30.08S
NUCLA          FAIR      59  30  33 E12       30.13S
$$

COZ017>023-064>068-300600-
...SOUTHWEST COLORADO...

CITY           SKY/WX    TMP DP  RH WIND       PRES   REMARKS
DURANGO        FAIR      53  26  35 CALM      30.13S
CORTEZ         FAIR      49  31  49 SE7       30.09R
PAGOSA SPRINGS FAIR      49  24  38 CALM      30.22R
TELLURIDE      FAIR      45  29  52 SE7       30.32S
WOLF CREEK PAS FAIR      37  27  65 NE7       30.50S
$$

COZ009-010-012-014-032>034-037-058>063-300600-
...CENTRAL COLORADO...

CITY           SKY/WX    TMP DP  RH WIND       PRES   REMARKS
ASPEN          FAIR      44  31  60 SW10      30.25R
BUENA VISTA    FAIR      45  27  50 NW7       30.28S
COPPER MTN     NOT AVBL
BERTHOUD PASS  FAIR      32  23  69 NW9       30.49S WCI  24
COTTONWOOD PAS FAIR      50  25  37 SW10      30.38S
GUNNISON       FAIR      46  30  53 CALM      30.29R
KREMMLING      FAIR      45  34  65 SE5       30.26S
LEADVILLE      FAIR      36  26  67 NE6       30.37R
MONARCH PASS   FAIR      39  23  52 E12       30.59F
SALIDA         FAIR      51  32  47 W9        30.33S
SUNLIGHT       FAIR      43  32  65 CALM      30.44S
WILKERSON PASS MOCLDY    41  28  60 E6        30.48F
$$

COZ069>075-300600-
...SAN LUIS VALLEY/SANGRE DE CRISTO MOUNTAINS...

CITY           SKY/WX    TMP DP  RH WIND       PRES   REMARKS
ALAMOSA        FAIR      51  34  52 NW7       30.22S
LA VETA PASS   MOCLDY    45  30  57 NE12      30.40S
SAGUACHE       FAIR      46  30  53 NW6       30.27F
$$

COZ035-036-038>040-300600-
...NORTHERN COLORADO FRONT RANGE...

CITY           SKY/WX    TMP DP  RH WIND       PRES   REMARKS
DENVER INTL AP FAIR      54  44  69 SW8       30.13R
DMNS CITY PARK   N/A     57  43  60 SE7       30.13S
AURORA         PTCLDY    52  44  72 S7        30.14F
FRONT RANGE AP NOT AVBL
ERIE MUNI ARPT FAIR      51  46  85 CALM      30.12F
BOULDER MUN AP FAIR      57  45  62 S3        30.12F
CENTENNIAL     FAIR      52  42  69 S5        30.15F
BROOMFIELD     NOT AVBL
FORT COLLINS   FAIR      57  43  58 CALM      30.11F
LONGMONT       FAIR      54  47  77 NW3       30.13F
$$

COZ041-046-047-076>085-087-088-300600-
...PIKES PEAK/PALMER DIVIDE AND SOUTHERN FOOTHILLS...

CITY           SKY/WX    TMP DP  RH WIND       PRES   REMARKS
COLO. SPRINGS  FAIR      55  43  63 E7        30.20R
A. F. ACADEMY  FAIR      48  43  81 NE6       30.19F
SCHRIEVER AFB  NOT AVBL
ELLICOTT       FAIR       1  32 100 E10       30.19R WCI -15
FALCON         FAIR      48  40  72 SE6       30.24R
FORT CARSON    FAIR      54  44  67 E9        30.17R
LIMON          FAIR      51  46  83 E3        30.16R
MONUMENT HILL  FAIR      43  39  87 S7        30.23F
TRINIDAD       FAIR      56  41  57 NW8       30.15F
$$

COZ042>045-048>051-090-091-300600-
...NORTHEAST COLORADO...

CITY           SKY/WX    TMP DP  RH WIND       PRES   REMARKS
GREELEY ARPT   FAIR      57  46  67 NW8       30.09S
AKRON          FAIR      55  50  83 E15G21    30.08R
BURLINGTON     FAIR      58  51  78 S12       30.13R
WRAY           FAIR      59  52  77 E10       30.14S
STERLING       FAIR      61  54  77 SE14      30.04S
HOLYOKE        FAIR      61  54  77 E17G25    30.06F
FORT MORGAN    FAIR      57  48  73 N8        30.08S
$$

COZ086-089-092>099-300600-
...SOUTHEAST COLORADO...

CITY           SKY/WX    TMP DP  RH WIND       PRES   REMARKS
PUEBLO         FAIR      61  49  64 NE9       30.10S
LA JUNTA       FAIR      61  46  57 E9        30.10R
LAMAR          FAIR      59  49  69 SE7       30.10R
SPRINGFIELD      N/A     53  49  86 SW14G21   30.13F
$$




USA.gov is the U.S. government's official web portal to all federal, state and local government web resources and services.